Weather History for La Grange, TX

Change the Weather History Date:

Thursday, November 1, 2012

  Actual Average (KAUS) Record (KAUS)
Temperature  
Mean Temperature 72 °F 64 °F  
Max Temperature 86 °F 77 °F 88 °F (1950)
Min Temperature 57 °F 51 °F 36 °F (1949)
Degree Days  
Heating Degree Days 0 4  
Month to date heating degree days 4  
Since 1 July heating degree days 55  
Cooling Degree Days 6 3  
Month to date cooling degree days 3  
Year to date cooling degree days 2706  
Growing Degree Days 22 (Base 50)    
Moisture  
Dew Point 61 °F    
Average Humidity 76    
Maximum Humidity 94    
Minimum Humidity 43    
Precipitation  
Precipitation 0.03 in 0.12 in 1.75 in (1998)
Month to date precipitation 0.12  
Year to date precipitation 27.07  
Snow  
Snow 0.00 in - - ()
Month to date snowfall  
Since 1 July snowfall  
Since 1 September snowfall  
Snow Depth -    
Sea Level Pressure  
Sea Level Pressure 30.01 in    
Wind  
Wind Speed 3 mph (SSW)    
Max Wind Speed 9 mph    
Max Gust Speed -    
Visibility 7 miles    
Events Fog , Thunderstorm    
T = Trace of Precipitation, MM = Missing Value Source: NWS Daily Summary

Daily Weather History Graph

Daily Weather History Graph

Search for Another Location

Airport:

Trip Planner

Search our weather history database for the weather conditions in past years. The results will help you decide how hot, cold, wet, or windy it might be!

Date:

Astronomy

Nov. 01, 2012 Rise Set
Actual Time 7:41 AM CDT 6:40 PM CDT
Civil Twilight 7:17 AM CDT 7:05 PM CDT
Nautical Twilight 6:48 AM CDT 7:33 PM CDT
Astronomical Twilight 6:20 AM CDT 8:01 PM CDT
Moon 8:47 PM CDT (11/1) 10:06 AM CDT (11/1)
Length of Visible Light 11h 47m
Length of Day
10h 58m
Waning Gibbous, 93% of the Moon is Illuminated
Nov 1
Waning Gibbous
Nov 6
Last Quarter
Nov 13
New
Nov 20
First Quarter
Nov 28
Full

Hourly Weather History & Observations

Time (CDT) Temp. Heat Index Dew Point Humidity Pressure Visibility Wind Dir Wind Speed Gust Speed Precip Events Conditions
12:15 AM 68.0 °F - 62.6 °F 83% 30.01 in 10.0 mi SSW 4.6 mph - N/A   Clear
12:35 AM 66.2 °F - 62.6 °F 88% 30.01 in 10.0 mi SSW 4.6 mph - N/A   Clear
12:55 AM 66.2 °F - 62.6 °F 88% 30.01 in 10.0 mi SW 3.5 mph - N/A   Clear
1:15 AM 64.4 °F - 60.8 °F 88% 30.01 in 10.0 mi SW 4.6 mph - N/A   Clear
1:35 AM 64.4 °F - 60.8 °F 88% 30.01 in 10.0 mi SW 3.5 mph - N/A   Clear
1:55 AM 64.4 °F - 60.8 °F 88% 30.01 in 10.0 mi Calm Calm - N/A   Clear
2:15 AM 62.6 °F - 59.0 °F 88% 30.02 in 7.0 mi Calm Calm - N/A   Clear
2:35 AM 60.8 °F - 59.0 °F 94% 30.02 in 7.0 mi Calm Calm - N/A   Clear
2:55 AM 60.8 °F - 59.0 °F 94% 30.01 in 7.0 mi Calm Calm - N/A   Clear
3:15 AM 59.0 °F - 55.4 °F 88% 30.01 in 10.0 mi Calm Calm - N/A   Clear
3:35 AM 59.0 °F - 57.2 °F 94% 30.01 in 5.0 mi Calm Calm - N/A   Clear
3:55 AM 60.8 °F - 59.0 °F 94% 30.01 in 1.8 mi Calm Calm - N/A   Mist
4:15 AM 59.0 °F - 55.4 °F 88% 30.01 in 1.0 mi Calm Calm - N/A   Mostly Cloudy
4:35 AM 59.0 °F - 55.4 °F 88% 30.01 in 0.5 mi Calm Calm - N/A Fog Fog
4:55 AM 59.0 °F - 55.4 °F 88% 30.01 in 4.0 mi Calm Calm - N/A   Overcast
5:15 AM 57.2 °F - 55.4 °F 94% 30.01 in 0.2 mi Calm Calm - N/A Fog Fog
5:35 AM 57.2 °F - 55.4 °F 94% 30.01 in 0.8 mi Calm Calm - N/A   Overcast
5:55 AM 59.0 °F - 55.4 °F 88% 30.01 in 0.2 mi Calm Calm - N/A Fog Fog
6:15 AM 59.0 °F - 55.4 °F 88% 30.01 in 0.2 mi Calm Calm - N/A Fog Fog
6:35 AM 59.0 °F - 55.4 °F 88% 30.01 in 0.2 mi Calm Calm - N/A Fog Fog
6:55 AM 59.0 °F - 57.2 °F 94% 30.02 in 0.2 mi Calm Calm - N/A Fog Fog
7:15 AM 60.8 °F - 57.2 °F 88% 30.02 in 0.2 mi Calm Calm - N/A Fog Fog
7:35 AM 60.8 °F - 59.0 °F 94% 30.03 in 0.5 mi Calm Calm - N/A Fog Fog
7:55 AM 60.8 °F - 59.0 °F 94% 30.04 in 0.2 mi Calm Calm - N/A Fog Fog
8:15 AM 60.8 °F - 59.0 °F 94% 30.05 in 0.2 mi Calm Calm - N/A Fog Fog
8:35 AM 62.6 °F - 59.0 °F 88% 30.05 in 0.2 mi Calm Calm - N/A Fog Fog
8:55 AM 62.6 °F - 60.8 °F 94% 30.05 in 0.2 mi Calm Calm - N/A Fog Fog
9:15 AM 64.4 °F - 60.8 °F 88% 30.06 in 0.2 mi Calm Calm - N/A Fog Fog
9:35 AM 66.2 °F - 62.6 °F 88% 30.06 in 0.2 mi Calm Calm - N/A Fog Fog
9:55 AM 68.0 °F - 64.4 °F 88% 30.06 in 0.2 mi West 4.6 mph - N/A Fog Fog
10:15 AM 68.0 °F - 64.4 °F 88% 30.06 in 0.2 mi West 4.6 mph - N/A Fog Fog
10:35 AM 68.0 °F - 64.4 °F 88% 30.07 in 0.8 mi WSW 3.5 mph - N/A   Overcast
10:55 AM 69.8 °F - 64.4 °F 83% 30.07 in 3.0 mi WSW 3.5 mph - N/A   Overcast
11:15 AM 69.8 °F - 64.4 °F 83% 30.07 in 10.0 mi WSW 4.6 mph - N/A   Overcast
11:35 AM 69.8 °F - 64.4 °F 83% 30.06 in 10.0 mi WSW 4.6 mph - N/A   Mostly Cloudy
11:55 AM 71.6 °F - 66.2 °F 83% 30.06 in 10.0 mi SW 4.6 mph - N/A   Scattered Clouds
12:15 PM 77.0 °F - 64.4 °F 65% 30.05 in 10.0 mi SW 5.8 mph - N/A   Clear
12:35 PM 78.8 °F - 62.6 °F 57% 30.04 in 10.0 mi SW 9.2 mph - N/A   Clear
12:55 PM 78.8 °F - 60.8 °F 54% - 10.0 mi North - - N/A   Clear
1:15 PM - - - N/A% - - North - - N/A   Unknown
1:35 PM - - - N/A% - - North - - N/A   Unknown
1:55 PM 84.2 °F 85.0 °F 62.6 °F 48% 30.01 in - SSW 5.8 mph - 0.03 in Thunderstorm Thunderstorm
2:15 PM 86.0 °F 86.6 °F 62.6 °F 45% 30.00 in 10.0 mi South 4.6 mph - N/A   Clear
2:35 PM 86.0 °F 86.1 °F 60.8 °F 43% 29.99 in 10.0 mi SSE 5.8 mph - N/A   Clear
2:55 PM 86.0 °F 86.6 °F 62.6 °F 45% 29.98 in 10.0 mi SSE 4.6 mph - N/A   Clear
3:15 PM 86.0 °F 86.6 °F 62.6 °F 45% 29.97 in 10.0 mi South 5.8 mph - N/A   Clear
3:35 PM 86.0 °F 86.6 °F 62.6 °F 45% 29.97 in 10.0 mi SSE 6.9 mph - N/A   Clear
3:55 PM 86.0 °F 86.1 °F 60.8 °F 43% 29.97 in 10.0 mi South 4.6 mph - N/A   Clear
4:15 PM 86.0 °F 86.6 °F 62.6 °F 45% 29.96 in 10.0 mi South 6.9 mph - N/A   Clear
4:35 PM 86.0 °F 86.6 °F 62.6 °F 45% 29.96 in 7.0 mi South 4.6 mph - N/A   Clear
4:55 PM 86.0 °F 86.6 °F 62.6 °F 45% 29.96 in 10.0 mi SSW 5.8 mph - N/A   Clear
5:15 PM 86.0 °F 86.6 °F 62.6 °F 45% 29.96 in 7.0 mi SSE 4.6 mph - N/A   Clear
5:35 PM 86.0 °F 86.1 °F 60.8 °F 43% 29.96 in 7.0 mi SSW 6.9 mph - N/A   Clear
5:55 PM 84.2 °F 84.4 °F 60.8 °F 45% 29.96 in 10.0 mi South 4.6 mph - N/A   Clear
6:15 PM 82.4 °F 83.4 °F 62.6 °F 51% 29.96 in 10.0 mi South 3.5 mph - N/A   Clear
6:35 PM 80.6 °F 81.8 °F 62.6 °F 54% 29.96 in 10.0 mi South 3.5 mph - N/A   Clear
6:55 PM 77.0 °F - 62.6 °F 61% 29.96 in 10.0 mi Calm Calm - N/A   Clear
7:15 PM 73.4 °F - 62.6 °F 69% 29.97 in 10.0 mi Calm Calm - N/A   Clear
7:35 PM 71.6 °F - 62.6 °F 73% 29.97 in 10.0 mi Calm Calm - N/A   Clear
7:55 PM 69.8 °F - 62.6 °F 78% 29.98 in 10.0 mi Calm Calm - N/A   Clear
8:15 PM 69.8 °F - 60.8 °F 73% 29.98 in 10.0 mi Calm Calm - N/A   Clear
8:35 PM 68.0 °F - 60.8 °F 78% 29.98 in 10.0 mi Calm Calm - N/A   Clear
8:55 PM 68.0 °F - 60.8 °F 78% 29.99 in 10.0 mi South 5.8 mph - N/A   Clear
9:15 PM 71.6 °F - 62.6 °F 73% 29.99 in 10.0 mi South 5.8 mph - N/A   Clear
9:35 PM 71.6 °F - 62.6 °F 73% 29.99 in 10.0 mi South 5.8 mph - N/A   Clear
9:55 PM 71.6 °F - 66.2 °F 83% 29.99 in 10.0 mi South 6.9 mph - N/A   Clear
10:15 PM 73.4 °F - 68.0 °F 83% 30.00 in 10.0 mi South 6.9 mph - N/A   Clear
10:35 PM 71.6 °F - 68.0 °F 88% 30.00 in 10.0 mi South 5.8 mph - N/A   Clear
10:55 PM 71.6 °F - 66.2 °F 83% 30.00 in 10.0 mi South 5.8 mph - N/A   Clear
11:15 PM 69.8 °F - 66.2 °F 88% 30.00 in 10.0 mi South 5.8 mph - N/A   Clear
11:35 PM 69.8 °F - 66.2 °F 88% 30.00 in 10.0 mi South 4.6 mph - N/A   Clear
11:55 PM 69.8 °F - 66.2 °F 88% 30.00 in 10.0 mi SSW 5.8 mph - N/A   Clear